Williams, AZ

2:01 AM MST on January 23, 2017 (GMT -0700)
Williams

Weather History for KCMR - July, 2012

Change the Weather History Date:

Thursday, July 5, 2012

  Actual Average (K40G) Record (K40G)
Temperature  
Mean Temperature 68 °F -  
Max Temperature 80 °F 80 °F 84 °F (2001)
Min Temperature 57 °F 73 °F 84 °F (2001)
Cooling Degree Days 4    
Growing Degree Days 18 (Base 50)    
Moisture  
Dew Point 44 °F    
Average Humidity 48    
Maximum Humidity 88    
Minimum Humidity 22    
Precipitation  
Precipitation 0.00 in - - ()
Sea Level Pressure  
Sea Level Pressure 30.29 in    
Wind  
Wind Speed 7 mph (WSW)    
Max Wind Speed 16 mph    
Max Gust Speed 22 mph    
Visibility 10 miles    
Events      
Averages and records for this station are not official NWS values.
T = Trace of Precipitation, MM = Missing Value Source: NWS Daily Summary

Daily Weather History Graph

Daily Weather History Graph

Search for Another Location

Airport or City:

Trip Planner

Search our weather history database for the weather conditions in past years. The results will help you decide how hot, cold, wet, or windy it might be!

Date:

Astronomy

Jul. 05, 2012 Rise Set
Actual Time 5:19 AM MST 7:46 PM MST
Civil Twilight 4:50 AM MST 8:16 PM MST
Nautical Twilight 4:13 AM MST 8:52 PM MST
Astronomical Twilight 3:33 AM MST 9:33 PM MST
Moon 9:12 PM MST (7/5) 7:30 AM MST (7/5)
Length of Visible Light 15h 26m
Length of Day
14h 27m
Waning Gibbous, 95% of the Moon is Illuminated
Jul 5
Waning Gibbous
Jul 10
Last Quarter
Jul 18
New
Jul 26
First Quarter
Aug 1
Full

Hourly Weather History & Observations

Time (MST) Temp. Dew Point Humidity Pressure Visibility Wind Dir Wind Speed Gust Speed Precip Events Conditions
12:15 AM 57.2 °F 53.6 °F 88% 30.27 in 10.0 mi SSW 6.9 mph - N/A   Partly Cloudy
12:35 AM 59.0 °F 53.6 °F 82% 30.26 in 10.0 mi South 8.1 mph - N/A   Mostly Cloudy
12:55 AM 59.0 °F 53.6 °F 82% 30.27 in 10.0 mi SSW 5.8 mph - N/A   Mostly Cloudy
1:15 AM 59.0 °F 53.6 °F 82% 30.27 in 10.0 mi SSW 4.6 mph - N/A   Overcast
1:55 AM 59.0 °F 53.6 °F 82% 30.26 in 10.0 mi SSW 6.9 mph - N/A   Overcast
2:15 AM 57.2 °F 53.6 °F 88% 30.26 in 10.0 mi SSW 6.9 mph - N/A   Scattered Clouds
2:35 AM 57.2 °F 53.6 °F 88% 30.26 in 10.0 mi Calm Calm - N/A   Mostly Cloudy
2:55 AM 57.2 °F 51.8 °F 82% 30.26 in 10.0 mi South 5.8 mph - N/A   Mostly Cloudy
3:15 AM 57.2 °F 51.8 °F 82% 30.27 in 10.0 mi Calm Calm - N/A   Mostly Cloudy
3:35 AM 57.2 °F 50.0 °F 77% 30.27 in 10.0 mi Calm Calm - N/A   Mostly Cloudy
3:55 AM 57.2 °F 46.4 °F 67% 30.27 in 10.0 mi Calm Calm - N/A   Mostly Cloudy
4:15 AM 57.2 °F 46.4 °F 67% 30.27 in 10.0 mi Calm Calm - N/A   Overcast
4:35 AM 57.2 °F 46.4 °F 67% 30.27 in 10.0 mi Calm Calm - N/A   Overcast
4:55 AM 57.2 °F 46.4 °F 67% 30.28 in 10.0 mi Calm Calm - N/A   Mostly Cloudy
5:15 AM 57.2 °F 46.4 °F 67% 30.28 in 10.0 mi Calm Calm - N/A   Mostly Cloudy
5:55 AM 57.2 °F 48.2 °F 72% 30.29 in 10.0 mi SW 8.1 mph - N/A   Mostly Cloudy
6:15 AM 57.2 °F 50.0 °F 77% 30.29 in 10.0 mi SW 8.1 mph - N/A   Mostly Cloudy
6:35 AM 59.0 °F 50.0 °F 72% 30.30 in 10.0 mi WSW 8.1 mph - N/A   Overcast
6:55 AM 60.8 °F 50.0 °F 68% 30.30 in 10.0 mi West 8.1 mph - N/A   Overcast
7:15 AM 60.8 °F 51.8 °F 72% 30.30 in 10.0 mi WSW 9.2 mph - N/A   Partly Cloudy
7:35 AM 60.8 °F 50.0 °F 68% 30.31 in 10.0 mi West 6.9 mph - N/A   Clear
7:55 AM 62.6 °F 50.0 °F 63% 30.31 in 10.0 mi WSW 9.2 mph - N/A   Scattered Clouds
8:15 AM 62.6 °F 50.0 °F 63% 30.32 in 10.0 mi West 8.1 mph - N/A   Scattered Clouds
8:35 AM 64.4 °F 50.0 °F 59% 30.32 in 10.0 mi WSW 8.1 mph - N/A   Partly Cloudy
8:55 AM 64.4 °F 48.2 °F 56% 30.32 in 10.0 mi West 10.4 mph - N/A   Partly Cloudy
9:35 AM 66.2 °F 48.2 °F 52% 30.32 in 10.0 mi WSW 8.1 mph - N/A   Scattered Clouds
9:55 AM 68.0 °F 48.2 °F 49% 30.33 in 10.0 mi SW 9.2 mph - N/A   Partly Cloudy
10:15 AM 68.0 °F 48.2 °F 49% 30.33 in 10.0 mi WSW 9.2 mph - N/A   Scattered Clouds
10:35 AM 69.8 °F 48.2 °F 46% 30.33 in 10.0 mi WSW 5.8 mph - N/A   Partly Cloudy
10:55 AM 71.6 °F 46.4 °F 41% 30.33 in 10.0 mi WSW 12.7 mph - N/A   Partly Cloudy
11:15 AM 71.6 °F 46.4 °F 41% 30.33 in 10.0 mi WNW 6.9 mph - N/A   Scattered Clouds
11:35 AM 71.6 °F 46.4 °F 41% 30.33 in 10.0 mi SW 11.5 mph - N/A   Scattered Clouds
11:55 AM 73.4 °F 44.6 °F 36% 30.33 in 10.0 mi West 8.1 mph 16.1 mph N/A   Mostly Cloudy
12:15 PM 73.4 °F 44.6 °F 36% 30.32 in 10.0 mi WSW 10.4 mph 17.3 mph N/A   Mostly Cloudy
12:35 PM 71.6 °F 44.6 °F 38% 30.32 in 10.0 mi West 6.9 mph - N/A   Scattered Clouds
12:55 PM 73.4 °F 44.6 °F 36% 30.32 in 10.0 mi WSW 10.4 mph 18.4 mph N/A   Scattered Clouds
1:15 PM 75.2 °F 42.8 °F 31% 30.32 in 10.0 mi WSW 6.9 mph 17.3 mph N/A   Scattered Clouds
1:35 PM 73.4 °F 41.0 °F 31% 30.31 in 10.0 mi SW 5.8 mph - N/A   Scattered Clouds
1:55 PM 75.2 °F 41.0 °F 29% 30.31 in 10.0 mi WSW 12.7 mph - N/A   Scattered Clouds
2:15 PM 77.0 °F 41.0 °F 28% 30.30 in 10.0 mi SW 15.0 mph 18.4 mph N/A   Partly Cloudy
2:35 PM 75.2 °F 41.0 °F 29% 30.30 in 10.0 mi South 10.4 mph 19.6 mph N/A   Mostly Cloudy
2:55 PM 78.8 °F 39.2 °F 24% 30.30 in 10.0 mi SW 10.4 mph 17.3 mph N/A   Scattered Clouds
3:15 PM 80.6 °F 39.2 °F 23% 30.29 in 10.0 mi WSW 12.7 mph 21.9 mph N/A   Partly Cloudy
3:35 PM 78.8 °F 39.2 °F 24% 30.28 in 10.0 mi SSW 11.5 mph 21.9 mph N/A   Clear
3:55 PM 77.0 °F 39.2 °F 26% 30.27 in 10.0 mi SSW 6.9 mph 20.7 mph N/A   Partly Cloudy
4:35 PM 78.8 °F 39.2 °F 24% 30.26 in 10.0 mi WSW 8.1 mph 19.6 mph N/A   Scattered Clouds
4:55 PM 77.0 °F 37.4 °F 24% 30.26 in 10.0 mi SSW 10.4 mph 19.6 mph N/A   Partly Cloudy
5:15 PM 77.0 °F 37.4 °F 24% 30.25 in 10.0 mi West 12.7 mph - N/A   Scattered Clouds
5:35 PM 77.0 °F 37.4 °F 24% 30.25 in 10.0 mi West 9.2 mph 16.1 mph N/A   Scattered Clouds
5:55 PM 75.2 °F 37.4 °F 25% 30.25 in 10.0 mi WSW 10.4 mph 18.4 mph N/A   Partly Cloudy
6:15 PM 77.0 °F 35.6 °F 22% 30.25 in 10.0 mi West 16.1 mph - N/A   Partly Cloudy
6:35 PM 75.2 °F 35.6 °F 24% 30.25 in 10.0 mi WSW 5.8 mph - N/A   Partly Cloudy
6:55 PM 75.2 °F 35.6 °F 24% 30.26 in 10.0 mi WSW 8.1 mph - N/A   Partly Cloudy
7:15 PM 75.2 °F 35.6 °F 24% 30.26 in 10.0 mi WSW 10.4 mph - N/A   Partly Cloudy
7:35 PM 73.4 °F 35.6 °F 25% 30.27 in 10.0 mi West 11.5 mph - N/A   Scattered Clouds
7:55 PM 71.6 °F 37.4 °F 29% 30.27 in 10.0 mi West 9.2 mph - N/A   Scattered Clouds
8:35 PM 69.8 °F 33.8 °F 27% 30.29 in 10.0 mi WSW 8.1 mph - N/A   Partly Cloudy
8:55 PM 68.0 °F 32.0 °F 26% 30.30 in 10.0 mi WSW 8.1 mph - N/A   Clear
9:35 PM 66.2 °F 35.6 °F 32% 30.32 in 10.0 mi WSW 8.1 mph - N/A   Clear
9:55 PM 66.2 °F 35.6 °F 32% 30.33 in 10.0 mi WSW 8.1 mph - N/A   Clear
10:15 PM 64.4 °F 35.6 °F 34% 30.33 in 10.0 mi WSW 4.6 mph - N/A   Clear
10:35 PM 64.4 °F 37.4 °F 37% 30.33 in 10.0 mi SW 4.6 mph - N/A   Clear
11:15 PM 62.6 °F 37.4 °F 39% 30.34 in 10.0 mi Calm Calm - N/A   Clear
11:35 PM 62.6 °F 37.4 °F 39% 30.34 in 10.0 mi Calm Calm - N/A   Clear
11:55 PM 60.8 °F 37.4 °F 42% 30.34 in 10.0 mi Calm Calm - N/A   Clear